K9JWM Weather Reports


Display with metric or nautical units.
time (UTC)temp
F
wind
direction
speed
MPH
gust
MPH
rain 1hr
in
rain 24hr
in
rain mn
in
humidity
%
barometer
mb
20260506184711 38 254 9.0 12.0 0.00 0.00 0.00 61 1014.8
20260506184005 38 256 12.0 20.0 0.00 0.00 0.00 65 1014.9
20260506183210 38 266 13.0 17.0 0.00 0.00 0.00 64 1014.8
20260506183006 38 269 9.0 21.0 0.00 0.00 0.00 61 1014.7
20260506182005 38 247 9.0 18.0 0.00 0.00 0.00 63 1014.6
20260506181711 38 251 12.0 15.0 0.00 0.00 0.00 64 1014.8
20260506181005 38 257 7.0 15.0 0.00 0.00 0.00 59 1014.7
20260506180211 38 253 7.0 12.0 0.00 0.00 0.00 60 1014.7
20260506180006 38 264 11.0 16.0 0.00 0.00 0.00 62 1014.8
20260506174711 38 245 10.0 14.0 0.00 0.00 0.00 60 1014.7
20260506173210 39 253 14.0 20.0 0.00 0.00 0.00 61 1014.9
20260506173005 38 282 5.0 14.0 0.00 0.00 0.00 60 1014.9
20260506171711 38 267 7.0 12.0 0.00 0.00 0.00 59 1014.8
20260506171006 38 255 12.0 20.0 0.00 0.00 0.00 59 1014.7
20260506170210 38 253 8.0 14.0 0.00 0.00 0.00 61 1014.9
20260506170005 37 276 8.0 12.0 0.00 0.00 0.00 59 1014.9
20260506165005 38 257 7.0 14.0 0.00 0.00 0.00 59 1015.0
20260506164710 38 274 3.0 13.0 0.00 0.00 0.00 60 1015.0
20260506164005 37 253 13.0 20.0 0.00 0.00 0.00 61 1014.9
20260506163209 37 256 9.0 13.0 0.00 0.00 0.00 60 1015.0
20260506163005 37 294 6.0 12.0 0.00 0.00 0.00 60 1015.0
20260506162005 37 286 6.0 13.0 0.00 0.00 0.00 60 1015.0
20260506161710 37 245 8.0 12.0 0.00 0.00 0.00 60 1015.0
20260506161005 37 281 10.0 16.0 0.00 0.00 0.00 63 1015.0
20260506160209 37 249 10.0 16.0 0.00 0.00 0.00 62 1015.0
20260506160005 37 294 5.0 16.0 0.00 0.00 0.00 62 1015.1
20260506155005 37 273 8.0 14.0 0.00 0.00 0.00 59 1015.0
20260506154711 37 258 5.0 7.0 0.00 0.00 0.00 59 1015.0
20260506154005 36 262 4.0 13.0 0.00 0.00 0.00 60 1015.0
20260506153209 36 271 7.0 9.0 0.00 0.00 0.00 60 1015.0
20260506153005 36 257 8.0 14.0 0.00 0.00 0.00 60 1014.9
20260506151711 36 256 8.0 12.0 0.00 0.00 0.00 60 1014.9
20260506151005 36 290 5.0 9.0 0.00 0.00 0.00 59 1014.9
20260506150210 36 255 3.0 8.0 0.00 0.00 0.00 61 1014.6
20260506150005 36 293 5.0 15.0 0.00 0.00 0.00 64 1014.7
20260506144711 36 276 9.0 12.0 0.00 0.00 0.00 63 1014.8
20260506144005 36 274 6.0 12.0 0.00 0.00 0.00 63 1014.7
20260506143210 35 333 7.0 12.0 0.00 0.00 0.00 67 1014.8
20260506143005 35 273 4.0 13.0 0.00 0.00 0.00 67 1014.7
20260506141710 35 278 8.0 12.0 0.00 0.00 0.00 67 1014.8
20260506141005 35 266 12.0 18.0 0.00 0.00 0.00 70 1014.8
20260506140210 35 262 3.0 8.0 0.00 0.00 0.00 66 1014.9
20260506140005 35 264 6.0 13.0 0.00 0.00 0.00 67 1014.8
20260506135005 34 260 5.0 13.0 0.00 0.00 0.00 68 1014.7
20260506134710 34 256 8.0 12.0 0.00 0.00 0.00 69 1014.8
20260506134005 34 256 10.0 17.0 0.00 0.00 0.00 69 1014.7
20260506133211 34 255 7.0 10.0 0.00 0.00 0.00 70 1014.8
20260506133005 34 247 4.0 12.0 0.00 0.00 0.00 71 1014.7
20260506131711 34 292 6.0 6.0 0.00 0.00 0.00 70 1014.7
20260506131004 33 285 8.0 16.0 0.00 0.00 0.00 69 1014.7
20260506130209 33 254 6.0 9.0 0.00 0.00 0.00 69 1014.6
20260506130006 33 265 6.0 13.0 0.00 0.00 0.00 69 1014.6
20260506124710 33 261 8.0 14.0 0.00 0.00 0.00 70 1014.7
20260506124004 33 254 7.0 13.0 0.00 0.00 0.00 70 1014.6
20260506123211 33 265 3.0 6.0 0.00 0.00 0.00 69 1014.5
20260506123005 33 265 3.0 9.0 0.00 0.00 0.00 71 1014.4
20260506121711 33 263 7.0 12.0 0.00 0.00 0.00 68 1014.3
20260506121005 33 286 6.0 12.0 0.00 0.00 0.00 66 1014.2
20260506120209 33 259 6.0 8.0 0.00 0.00 0.00 66 1014.1
20260506120005 33 259 4.0 9.0 0.00 0.00 0.00 66 1014.1
20260506115005 33 258 4.0 10.0 0.00 0.00 0.00 68 1014.0
20260506114710 33 261 3.0 5.0 0.00 0.00 0.00 66 1013.9
20260506114005 33 257 4.0 9.0 0.00 0.00 0.00 67 1013.8
20260506113211 33 268 5.0 5.0 0.00 0.00 0.00 65 1013.6
20260506113005 33 271 4.0 8.0 0.00 0.00 0.00 65 1013.7
20260506112005 33 256 3.0 9.0 0.00 0.00 0.00 67 1013.6
20260506111709 33 308 2.0 3.0 0.00 0.00 0.00 64 1013.5
20260506110210 34 302 3.0 3.0 0.00 0.00 0.00 64 1013.4
20260506110004 34 276 7.0 13.0 0.00 0.00 0.00 65 1013.3
20260506104711 34 300 5.0 9.0 0.00 0.00 0.00 68 1013.2
20260506104005 34 293 5.0 12.0 0.00 0.00 0.00 66 1013.3
20260506103210 34 265 6.0 8.0 0.00 0.00 0.00 69 1013.2
20260506103005 34 273 5.0 10.0 0.00 0.00 0.00 67 1013.2
20260506102005 35 270 2.0 8.0 0.00 0.00 0.00 67 1013.2
20260506101710 35 273 0.0 3.0 0.00 0.00 0.00 67 1013.2
20260506101004 35 265 1.0 7.0 0.00 0.00 0.00 67 1013.1
20260506100210 35 284 3.0 3.0 0.00 0.00 0.00 67 1013.1
20260506100005 35 284 3.0 10.0 0.00 0.00 0.00 69 1013.1
20260506095005 35 253 3.0 8.0 0.00 0.00 0.00 68 1013.1
20260506094711 35 292 5.0 8.0 0.00 0.00 0.00 65 1013.2
20260506094005 35 267 2.0 9.0 0.00 0.00 0.00 67 1013.1
20260506093211 35 275 3.0 6.0 0.00 0.00 0.00 66 1013.1
20260506093004 35 269 5.0 12.0 0.00 0.00 0.00 66 1013.1
20260506092004 35 271 3.0 10.0 0.00 0.00 0.00 66 1013.1
20260506091710 35 281 6.0 9.0 0.00 0.00 0.00 67 1013.0
20260506091005 35 287 6.0 12.0 0.00 0.00 0.00 64 1013.0
20260506090209 35 250 5.0 7.0 0.00 0.00 0.00 67 1012.8
20260506090005 35 254 4.0 8.0 0.00 0.00 0.00 66 1012.9
20260506085004 35 271 3.0 6.0 0.00 0.00 0.00 66 1012.8
20260506084710 35 262 3.0 5.0 0.00 0.00 0.00 64 1012.8
20260506084005 35 271 3.0 7.0 0.00 0.00 0.00 67 1012.8
20260506083211 35 244 5.0 7.0 0.00 0.00 0.00 67 1012.8
20260506083005 35 267 4.0 9.0 0.00 0.00 0.00 64 1012.8
20260506082005 35 283 3.0 9.0 0.00 0.00 0.00 64 1012.8
20260506081711 35 265 2.0 6.0 0.00 0.00 0.00 64 1012.8
20260506081005 35 255 3.0 9.0 0.00 0.00 0.00 65 1012.8
20260506080209 35 271 2.0 5.0 0.00 0.00 0.00 65 1012.8
20260506073210 35 279 0.0 2.0 0.00 0.00 0.00 68 1012.9
20260506073004 35 273 3.0 5.0 0.00 0.00 0.00 66 1012.8
20260506072005 35 288 2.0 6.0 0.00 0.00 0.00 67 1012.8
20260506071711 35 303 1.0 6.0 0.00 0.00 0.00 66 1012.9
20260506071005 35 313 1.0 6.0 0.00 0.00 0.00 67 1012.7
20260506070211 35 285 2.0 3.0 0.00 0.00 0.00 68 1012.8
20260506062005 34 278 1.0 3.0 0.00 0.00 0.00 68 1012.6
20260506061709 34 287 0.0 0.0 0.00 0.00 0.00 70 1012.7
20260506061005 34 288 1.0 3.0 0.00 0.00 0.00 68 1012.7
20260506060210 34 298 1.0 1.0 0.00 0.00 0.00 66 1012.6
20260506051005 36 271 2.0 6.0 0.00 0.00 0.00 63 1012.2
20260506050211 36 260 1.0 3.0 0.00 0.00 0.00 64 1012.1
20260506045004 36 301 3.0 6.0 0.00 0.00 0.00 63 1012.0
20260506044710 36 294 2.0 3.0 0.00 0.00 0.00 64 1012.0
20260506044004 36 266 4.0 7.0 0.00 0.00 0.00 64 1012.0
20260506043210 37 299 2.0 3.0 0.00 0.00 0.00 61 1011.9
20260506043004 37 273 3.0 8.0 0.00 0.00 0.00 61 1011.9
20260506042005 37 296 1.0 7.0 0.00 0.00 0.00 63 1011.9
20260506041709 37 286 0.0 5.0 0.00 0.00 0.00 61 1011.9
20260506041005 37 277 2.0 6.0 0.00 0.00 0.00 61 1011.9
20260506040210 37 315 3.0 6.0 0.00 0.00 0.00 61 1011.9
20260506040005 38 270 3.0 7.0 0.00 0.00 0.00 61 1011.9
20260506035005 38 339 3.0 8.0 0.00 0.00 0.00 59 1012.0
20260506034710 38 287 2.0 7.0 0.00 0.00 0.00 60 1012.0
20260506033209 38 290 3.0 9.0 0.00 0.00 0.00 61 1011.9
20260506033005 38 261 2.0 8.0 0.00 0.00 0.00 61 1011.9
20260506032005 38 312 3.0 6.0 0.00 0.00 0.00 60 1011.9
20260506031711 38 310 0.0 2.0 0.00 0.00 0.00 60 1011.9
20260506031004 38 312 2.0 6.0 0.00 0.00 0.00 61 1011.8
20260506030210 38 308 2.0 6.0 0.00 0.00 0.00 63 1011.8
20260506030005 38 298 1.0 6.0 0.00 0.00 0.00 61 1011.8
20260506024709 38 7 1.0 3.0 0.00 0.00 0.00 61 1011.8
20260506023209 38 288 2.0 3.0 0.00 0.00 0.00 60 1011.8
20260506023005 38 274 1.0 3.0 0.00 0.00 0.00 61 1011.8
20260506022005 39 302 2.0 5.0 0.00 0.00 0.00 61 1011.6
20260506021711 39 295 0.0 1.0 0.00 0.00 0.00 61 1011.5
20260506021004 39 334 0.0 8.0 0.00 0.00 0.00 59 1011.5
20260506020210 39 322 2.0 3.0 0.00 0.00 0.00 58 1011.4
20260506020005 39 348 1.0 6.0 0.00 0.00 0.00 58 1011.4
20260506015005 39 239 2.0 8.0 0.00 0.00 0.00 59 1011.2
20260506014709 40 306 2.0 5.0 0.00 0.00 0.00 58 1011.2
20260506013210 40 332 2.0 6.0 0.00 0.00 0.00 57 1011.0
20260506013004 40 284 3.0 9.0 0.00 0.00 0.00 59 1011.0
20260506012004 40 332 4.0 13.0 0.00 0.00 0.00 56 1010.8
20260506011710 40 270 2.0 3.0 0.00 0.00 0.00 58 1010.8
20260506011005 40 279 3.0 8.0 0.00 0.00 0.00 57 1010.7
20260506010209 40 265 2.0 3.0 0.00 0.00 0.00 58 1010.6
20260506010005 41 295 2.0 8.0 0.00 0.00 0.00 56 1010.7
20260506004710 41 313 1.0 1.0 0.00 0.00 0.00 58 1010.6
20260506004004 41 262 1.0 8.0 0.00 0.00 0.00 56 1010.5
20260506003210 41 283 3.0 5.0 0.00 0.00 0.00 55 1010.5
20260506003005 41 298 3.0 9.0 0.00 0.00 0.00 55 1010.6
20260506002004 41 279 2.0 12.0 0.00 0.00 0.00 56 1010.5
20260506001711 41 253 2.0 3.0 0.00 0.00 0.00 55 1010.5
20260506001004 42 346 6.0 13.0 0.00 0.00 0.00 55 1010.3
20260506000211 42 276 5.0 9.0 0.00 0.00 0.00 53 1010.2
20260505235004 42 318 5.0 14.0 0.00 0.00 0.00 55 1010.1
20260505234710 42 272 6.0 6.0 0.00 0.00 0.00 53 1010.1
20260505234004 42 296 5.0 13.0 0.00 0.00 0.00 58 1010.0
20260505233209 42 264 7.0 9.0 0.00 0.00 0.00 57 1010.0
20260505233005 42 255 8.0 15.0 0.00 0.00 0.00 55 1010.0
20260505232004 42 258 3.0 9.0 0.00 0.00 0.00 53 1009.9
20260505231709 42 304 3.0 5.0 0.00 0.00 0.00 56 1009.8
20260505231004 42 340 4.0 13.0 0.00 0.00 0.00 51 1009.9
20260505230209 42 320 1.0 6.0 0.00 0.00 0.00 55 1009.8
20260505230004 42 291 2.0 12.0 0.00 0.00 0.00 55 1009.8
20260505225005 42 317 5.0 14.0 0.00 0.00 0.00 53 1009.9
20260505224710 42 287 8.0 12.0 0.00 0.00 0.00 50 1009.9
20260505224004 42 267 9.0 15.0 0.00 0.00 0.00 52 1009.8
20260505223209 42 304 5.0 3.0 0.00 0.00 0.00 51 1009.8
20260505223005 43 314 3.0 10.0 0.00 0.00 0.00 54 1009.8
20260505222004 42 290 4.0 12.0 0.00 0.00 0.00 50 1009.8
20260505221710 43 273 5.0 8.0 0.00 0.00 0.00 51 1009.8
20260505221004 43 254 3.0 15.0 0.00 0.00 0.00 49 1009.7
20260505220210 43 314 8.0 13.0 0.00 0.00 0.00 50 1009.7
20260505215004 43 265 8.0 14.0 0.00 0.00 0.00 51 1009.8
20260505214709 43 256 7.0 14.0 0.00 0.00 0.00 53 1009.7
20260505214004 42 291 5.0 18.0 0.00 0.00 0.00 54 1009.7
20260505213209 42 281 7.0 12.0 0.00 0.00 0.00 52 1009.7
20260505213005 42 273 6.0 14.0 0.00 0.00 0.00 51 1009.7
20260505212005 42 245 5.0 17.0 0.00 0.00 0.00 52 1009.7
20260505211710 42 264 9.0 13.0 0.00 0.00 0.00 52 1009.7
20260505211004 42 258 9.0 20.0 0.00 0.00 0.00 53 1009.6
20260505210210 42 262 10.0 20.0 0.00 0.00 0.00 57 1009.6
20260505210004 42 256 9.0 15.0 0.00 0.00 0.00 52 1009.6
20260505205004 41 262 6.0 20.0 0.00 0.00 0.00 53 1009.7
20260505204709 41 260 10.0 12.0 0.00 0.00 0.00 54 1009.6
20260505204004 42 257 9.0 16.0 0.00 0.00 0.00 52 1009.5
20260505203210 42 281 7.0 12.0 0.00 0.00 0.00 54 1009.5
20260505203005 42 266 10.0 20.0 0.00 0.00 0.00 54 1009.6
20260505202004 41 275 10.0 20.0 0.00 0.00 0.00 55 1009.8
20260505201709 40 256 8.0 12.0 0.00 0.00 0.00 54 1009.6
20260505201004 41 277 7.0 18.0 0.00 0.00 0.00 52 1009.5
20260505200209 41 266 5.0 12.0 0.00 0.00 0.00 53 1009.6
20260505195004 40 247 12.0 18.0 0.00 0.00 0.00 57 1009.6
20260505194708 40 277 7.0 13.0 0.00 0.00 0.00 56 1009.6
20260505194005 40 242 10.0 17.0 0.00 0.00 0.00 59 1009.5
20260505193209 40 259 9.0 16.0 0.00 0.00 0.00 57 1009.6
20260505193005 40 261 8.0 15.0 0.00 0.00 0.00 60 1009.6
20260505192005 39 248 13.0 18.0 0.00 0.00 0.00 59 1009.5
20260505191710 39 262 9.0 13.0 0.00 0.00 0.00 54 1009.5
20260505190210 39 260 6.0 9.0 0.00 0.00 0.00 57 1009.6